Tracking 29777 objects as of 7-Oct-2024
HD Live streaming from Space Station
objects crossing your sky now

IRIDIUM 44

Track IRIDIUM 44 now!
10-day predictions
IRIDIUM 44 is classified as:


NORAD ID: 25078
Int'l Code: 1997-077B
Perigee: 764.0 km
Apogee: 769.3 km
Inclination: 86.4 °
Period: 100.0 minutes
Semi major axis: 7137 km
RCS: 3.743 m2 (large)
Launch date: December 8, 1997
Source: United States (US)
Launch site: Taiyaun Space Center, China (TSC)
Your satellite tracking list
Your tracking list is empty




NASA's NSSDC Master Catalog

Two Line Element Set (TLE):
1 25078U 97077B   24280.84739072  .00002012  00000-0  63698-3 0  9998
2 25078  86.3967 328.2231 0003687 114.4586 245.6997 14.39702334407242
Source of the keplerian elements: AFSPC